Regional Weather Roundup
Issued by NWS Raleigh/Durham, NC

Home | Current Version | Previous Version | Text Only | Print | Product List | Glossary On
Versions: 1 2 3 4 5 6 7 8 9 10 11 12 13 14 15 16 17 18 19 20 21 22 23 24 25 26 27 28 29 30 31 32 33 34 35 36 37 38 39 40 41 42 43 44 45 46 47 48 49 50
738
ASUS42 KRAH 240210
RWRRAH
NORTH CAROLINA WEATHER ROUNDUP
NATIONAL WEATHER SERVICE RALEIGH NC
900 PM EST FRI FEB 23 2018

NOTE: "FAIR" INDICATES FEW OR NO CLOUDS BELOW 12,000 FEET WITH NO
SIGNIFICANT WEATHER AND/OR OBSTRUCTIONS TO VISIBILITY.

NCZ001-053-055-056-065-067-240300-
WESTERN NORTH CAROLINA

CITY           SKY/WX    TMP DP  RH WIND       PRES   REMARKS
ASHEVILLE      FAIR      62  54  74 SE3       30.33F
JEFFERSON      FAIR      55  54  94 CALM      30.36S
MORGANTON      FAIR      61  57  85 CALM      30.35S
HICKORY        FAIR      60  56  86 CALM      30.31F
RUTHERFORDTON  FAIR      64  58  81 S3        30.32F
MOUNT AIRY     FAIR      55  51  87 CALM      30.35S
BOONE          FAIR      56  53  91 CALM      30.36F
$$

NCZ021-022-025-041-071-084-088-240300-
CENTRAL NORTH CAROLINA

CITY           SKY/WX    TMP DP  RH WIND       PRES   REMARKS
CHARLOTTE      FAIR      66  55  67 SW5       30.32R
GREENSBORO     FAIR      54  53  97 NE6       30.31S
WINSTON-SALEM  FAIR      52  51  97 N3        30.33S
RALEIGH-DURHAM FAIR      61  56  83 SE6       30.32S
FORT BRAGG     FAIR      69  60  74 S8        30.30S
FAYETTEVILLE   FAIR      68  62  81 S10       30.31S
BURLINGTON     FAIR      55  53  93 NW3       30.31S
LAURINBURG     FAIR      67  62  84 S10       30.32S
$$

NCZ011-015-027-028-043-044-047-080-103-240300-
NORTHEASTERN NORTH CAROLINA

CITY           SKY/WX    TMP DP  RH WIND       PRES   REMARKS
ROCKY MT-WILSO FAIR      54  53  97 CALM      30.32F
GREENVILLE     FAIR      63  59  88 S3        30.33F HAZE
WASHINGTON     FAIR      64  60  89 SE6       30.34F
ELIZABETH CITY FOG       50  50 100 SE7       30.35F VSB 1/2
MANTEO         FOG       48  48 100 CALM      30.36F VSB 1
CAPE HATTERAS  CLOUDY    57  55  93 CALM      30.36F
$$

NCZ078-087-090-091-093-098-101-240300-
SOUTHEASTERN NORTH CAROLINA

CITY           SKY/WX    TMP DP  RH WIND       PRES   REMARKS
LUMBERTON      FAIR      66  62  87 S6        30.31F
GOLDSBORO      FAIR      66  62  87 S6        30.31F
KINSTON        MOCLDY    64  63  94 S9        30.34F
KENANSVILLE    CLOUDY    64  63  94 S5        30.33F
NEW BERN       CLOUDY    63  62  97 S3        30.35F
CHERRY POINT   MOCLDY    65  64  97 SE5       30.36F
BEAUFORT       MOCLDY    63  62  97 S5        30.35F
JACKSONVILLE   FAIR      64  64 100 CALM      30.34F
WILMINGTON     FAIR      65  63  93 S6        30.34F
$$





USA.gov is the U.S. government's official web portal to all federal, state and local government web resources and services.